When you browse on this site, cookies collect data to enhance your experience and personalize the content and advertising you see.
Visit our Privacy Policy to learn more. By continuing to use the site, you agree to this use of cookies and data.
  • In United Kingdom
  • List of Countries
  • For 7 days
  • Water Temperature
  • Weather Map
  • Weather Widgets
  • user-avatar
    Login

    Hourly Weather Wlora

    Today, 6 December, Friday

    Time Temperature Precipitation Wind Pressure Humidity
    00:00 +14°C° 0.3 mm 3 mps 769 mmHg 78%
    01:00 +13°C° 0 mm 3 mps 768 mmHg 76%
    02:00 +13°C° 0.1 mm 3 mps 768 mmHg 79%
    03:00 +13°C° 0.1 mm 3 mps 768 mmHg 81%
    04:00 +13°C° 0.1 mm 3 mps 768 mmHg 83%
    05:00 +13°C° 0 mm 3 mps 768 mmHg 82%
    06:00 +14°C° 0 mm 4 mps 768 mmHg 81%
    07:00 +14°C° 0 mm 4 mps 768 mmHg 80%
    08:00 +14°C° 0 mm 4 mps 768 mmHg 79%
    09:00 +15°C° 0 mm 5 mps 768 mmHg 77%
    10:00 +16°C° 0 mm 5 mps 768 mmHg 76%
    11:00 +16°C° 0 mm 5 mps 768 mmHg 75%
    12:00 +17°C° 0 mm 6 mps 767 mmHg 75%
    13:00 +17°C° 0 mm 6 mps 767 mmHg 75%
    14:00 +17°C° 0.3 mm 6 mps 767 mmHg 78%
    15:00 +16°C° 0.3 mm 6 mps 766 mmHg 80%
    16:00 +16°C° 0.3 mm 7 mps 766 mmHg 83%
    17:00 +15°C° 1.7 mm 7 mps 766 mmHg 86%
    18:00 +15°C° 1.7 mm 7 mps 766 mmHg 89%
    19:00 +15°C° 1.7 mm 7 mps 766 mmHg 92%
    20:00 +15°C° 1.1 mm 7 mps 765 mmHg 92%
    21:00 +15°C° 1.1 mm 8 mps 765 mmHg 92%
    22:00 +15°C° 1.1 mm 8 mps 765 mmHg 92%
    23:00 +15°C° 0.6 mm 8 mps 765 mmHg 91%

    Tomorrow, 7 December, Saturday

    Time Temperature Precipitation Wind Pressure Humidity
    00:00 +15°C° 0.6 mm 8 mps 764 mmHg 90%
    01:00 +15°C° 0.6 mm 9 mps 764 mmHg 88%
    02:00 +15°C° 1.1 mm 8 mps 764 mmHg 89%
    03:00 +15°C° 1.1 mm 7 mps 763 mmHg 89%
    04:00 +15°C° 1.1 mm 6 mps 763 mmHg 89%
    05:00 +15°C° 1.2 mm 5 mps 763 mmHg 89%
    06:00 +15°C° 1.2 mm 5 mps 763 mmHg 89%
    07:00 +15°C° 1.2 mm 4 mps 763 mmHg 89%
    08:00 +15°C° 0.9 mm 4 mps 763 mmHg 85%
    09:00 +17°C° 0.9 mm 4 mps 763 mmHg 81%
    10:00 +17°C° 0.9 mm 4 mps 763 mmHg 78%
    11:00 +16°C° 0.2 mm 5 mps 763 mmHg 77%
    12:00 +17°C° 0.2 mm 5 mps 763 mmHg 77%
    13:00 +17°C° 0.2 mm 6 mps 763 mmHg 76%
    14:00 +16°C° 0.1 mm 6 mps 763 mmHg 80%
    15:00 +15°C° 0.1 mm 6 mps 763 mmHg 83%
    16:00 +15°C° 0.1 mm 6 mps 763 mmHg 86%
    17:00 +14°C° 0.1 mm 5 mps 763 mmHg 87%
    18:00 +14°C° 0.1 mm 4 mps 763 mmHg 88%
    19:00 +13°C° 0.1 mm 4 mps 764 mmHg 89%
    20:00 +13°C° 0 mm 4 mps 764 mmHg 87%
    21:00 +13°C° 0 mm 3 mps 764 mmHg 86%
    22:00 +13°C° 0 mm 3 mps 764 mmHg 84%
    23:00 +13°C° 0 mm 3 mps 764 mmHg 84%

    Day after tomorrow, 8 December, Sunday

    Time Temperature Precipitation Wind Pressure Humidity
    00:00 +13°C° 0 mm 3 mps 764 mmHg 83%
    01:00 +13°C° 0 mm 4 mps 764 mmHg 83%
    02:00 +13°C° 0.1 mm 4 mps 763 mmHg 82%
    03:00 +12°C° 0.1 mm 4 mps 763 mmHg 82%
    04:00 +12°C° 0.1 mm 4 mps 763 mmHg 81%
    05:00 +12°C° 0 mm 4 mps 763 mmHg 81%
    06:00 +12°C° 0 mm 3 mps 764 mmHg 80%
    07:00 +12°C° 0 mm 3 mps 764 mmHg 79%
    08:00 +13°C° 0 mm 3 mps 764 mmHg 75%
    09:00 +14°C° 0 mm 4 mps 764 mmHg 71%
    10:00 +15°C° 0 mm 4 mps 764 mmHg 68%
    11:00 +17°C° 0 mm 4 mps 764 mmHg 68%
    12:00 +17°C° 0 mm 4 mps 764 mmHg 68%
    13:00 +16°C° 0 mm 5 mps 764 mmHg 68%
    14:00 +16°C° 0 mm 5 mps 764 mmHg 73%
    15:00 +15°C° 0 mm 5 mps 763 mmHg 78%
    16:00 +14°C° 0 mm 4 mps 763 mmHg 83%
    17:00 +14°C° 0 mm 4 mps 763 mmHg 84%
    18:00 +13°C° 0 mm 4 mps 764 mmHg 85%
    19:00 +13°C° 0 mm 4 mps 764 mmHg 86%
    20:00 +12°C° 0 mm 3 mps 764 mmHg 84%
    21:00 +12°C° 0 mm 3 mps 764 mmHg 82%
    22:00 +13°C° 0 mm 2 mps 764 mmHg 80%
    23:00 +13°C° 0 mm 2 mps 763 mmHg 77%

    9 December, Monday

    Time Temperature Precipitation Wind Pressure Humidity
    00:00 +13°C° 0 mm 2 mps 763 mmHg 75%
    01:00 +13°C° 0 mm 1 mps 763 mmHg 72%
    02:00 +12°C° 0 mm 1 mps 762 mmHg 72%
    03:00 +12°C° 0 mm 1 mps 762 mmHg 71%
    04:00 +12°C° 0 mm 1 mps 762 mmHg 71%
    05:00 +12°C° 0 mm 1 mps 762 mmHg 72%
    06:00 +12°C° 0 mm 1 mps 762 mmHg 73%
    07:00 +12°C° 0 mm 1 mps 762 mmHg 74%
    08:00 +13°C° 0 mm 2 mps 762 mmHg 72%
    09:00 +14°C° 0 mm 3 mps 761 mmHg 70%
    10:00 +16°C° 0 mm 3 mps 761 mmHg 68%
    11:00 +15°C° 0 mm 4 mps 761 mmHg 66%
    12:00 +16°C° 0 mm 5 mps 760 mmHg 65%
    13:00 +16°C° 0 mm 6 mps 760 mmHg 63%
    14:00 +16°C° 0.1 mm 6 mps 759 mmHg 67%
    15:00 +15°C° 0.1 mm 7 mps 759 mmHg 71%
    16:00 +14°C° 0.1 mm 7 mps 759 mmHg 75%
    17:00 +14°C° 0.1 mm 7 mps 758 mmHg 79%
    18:00 +13°C° 0.1 mm 6 mps 758 mmHg 82%
    19:00 +13°C° 0.1 mm 6 mps 758 mmHg 85%
    20:00 +12°C° 0.1 mm 7 mps 758 mmHg 85%
    21:00 +12°C° 0.1 mm 7 mps 758 mmHg 86%
    22:00 +12°C° 0.1 mm 8 mps 757 mmHg 86%
    23:00 +12°C° 0.6 mm 7 mps 757 mmHg 85%

    10 December, Tuesday

    Time Temperature Precipitation Wind Pressure Humidity
    00:00 +12°C° 0.6 mm 7 mps 757 mmHg 84%
    01:00 +12°C° 0.6 mm 7 mps 756 mmHg 83%
    02:00 +12°C° 0.4 mm 7 mps 756 mmHg 82%
    03:00 +13°C° 0.4 mm 6 mps 756 mmHg 80%
    04:00 +11°C° 0.4 mm 6 mps 755 mmHg 78%
    05:00 +11°C° 0.7 mm 7 mps 755 mmHg 78%
    06:00 +11°C° 0.7 mm 7 mps 755 mmHg 79%
    07:00 +11°C° 0.7 mm 8 mps 755 mmHg 79%
    08:00 +11°C° 0.9 mm 8 mps 755 mmHg 77%
    09:00 +12°C° 0.9 mm 8 mps 755 mmHg 76%
    10:00 +12°C° 0.9 mm 8 mps 755 mmHg 74%
    11:00 +12°C° 0.6 mm 7 mps 754 mmHg 73%
    12:00 +12°C° 0.6 mm 7 mps 754 mmHg 73%
    13:00 +13°C° 0.6 mm 6 mps 754 mmHg 72%
    14:00 +13°C° 0.5 mm 6 mps 754 mmHg 74%
    15:00 +12°C° 0.5 mm 5 mps 754 mmHg 75%
    16:00 +12°C° 0.5 mm 4 mps 754 mmHg 76%
    17:00 +11°C° 0.4 mm 4 mps 754 mmHg 78%
    18:00 +11°C° 0.4 mm 3 mps 754 mmHg 80%
    19:00 +11°C° 0.4 mm 3 mps 755 mmHg 82%
    20:00 +10°C° 0.2 mm 3 mps 755 mmHg 82%
    21:00 +10°C° 0.2 mm 2 mps 755 mmHg 83%
    22:00 +11°C° 0.2 mm 1 mps 756 mmHg 83%
    23:00 +10°C° 0.1 mm 2 mps 756 mmHg 83%

    11 December, Wednesday

    Time Temperature Precipitation Wind Pressure Humidity
    00:00 +10°C° 0.1 mm 2 mps 756 mmHg 82%
    01:00 +9°C° 0.1 mm 2 mps 756 mmHg 81%
    02:00 +9°C° 0.4 mm 3 mps 756 mmHg 81%
    03:00 +8°C° 0.4 mm 4 mps 756 mmHg 81%
    04:00 +8°C° 0.4 mm 5 mps 756 mmHg 81%
    05:00 +8°C° 0.2 mm 6 mps 757 mmHg 82%
    06:00 +6°C° 0.2 mm 7 mps 757 mmHg 82%
    07:00 +6°C° 0.2 mm 8 mps 757 mmHg 82%
    08:00 +8°C° 0 mm 7 mps 758 mmHg 78%
    09:00 +9°C° 0 mm 7 mps 758 mmHg 74%
    10:00 +10°C° 0 mm 7 mps 758 mmHg 70%
    11:00 +11°C° 0 mm 7 mps 758 mmHg 67%
    12:00 +12°C° 0 mm 7 mps 758 mmHg 64%
    13:00 +12°C° 0 mm 7 mps 758 mmHg 61%
    14:00 +11°C° 0 mm 8 mps 758 mmHg 65%
    15:00 +11°C° 0 mm 8 mps 758 mmHg 68%
    16:00 +10°C° 0 mm 9 mps 758 mmHg 72%
    17:00 +9°C° 0 mm 8 mps 759 mmHg 74%
    18:00 +9°C° 0 mm 8 mps 759 mmHg 76%
    19:00 +8°C° 0 mm 7 mps 759 mmHg 77%
    20:00 +8°C° 0 mm 7 mps 759 mmHg 77%
    21:00 +8°C° 0 mm 6 mps 759 mmHg 76%
    22:00 +8°C° 0 mm 6 mps 759 mmHg 76%
    23:00 +7°C° 0 mm 6 mps 759 mmHg 75%
    Show more